Kodiak, AK

5:53 AM AKDT on July 21, 2017 (GMT -0800)
Kodiak

Weather History for PADQ - November, 2010

Change the Weather History Date:

Thursday, November 25, 2010

  Actual Average Record
Temperature  
Mean Temperature 37 °F 32 °F  
Max Temperature 39 °F 37 °F 54 °F (1970)
Min Temperature 35 °F 27 °F 5 °F (2005)
Degree Days  
Heating Degree Days 28 33  
Month to date heating degree days 737 769  
Since 1 July heating degree days 2536 2631  
Cooling Degree Days 0 0  
Month to date cooling degree days 0 0  
Year to date cooling degree days 0 1  
Moisture  
Dew Point 20 °F    
Average Humidity 0    
Maximum Humidity 0    
Minimum Humidity 0    
Precipitation  
Precipitation T in 0.24 in 2.64 in (1936)
Month to date precipitation 1.67 5.60  
Year to date precipitation 64.21 68.00  
Snow  
Snow T in 0.30 in 2.60 in (1976)
Month to date snowfall T 4.6  
Since 1 July snowfall T 5.7  
Since 1 September snowfall 0.0 5.7  
Snow Depth 0.00 in    
Sea Level Pressure  
Sea Level Pressure 29.46 in    
Wind  
Wind Speed 17 mph (WNW)    
Max Wind Speed 28 mph    
Max Gust Speed 38 mph    
Visibility 10 miles    
Events Snow    
T = Trace of Precipitation, MM = Missing Value Source: NWS Daily Summary

Daily Weather History Graph

Daily Weather History Graph

Search for Another Location

Airport or City:

Trip Planner

Search our weather history database for the weather conditions in past years. The results will help you decide how hot, cold, wet, or windy it might be!

Date:

Astronomy

Nov. 25, 2010 Rise Set
Actual Time 9:17 AM AKST 4:36 PM AKST
Civil Twilight 8:29 AM AKST 5:23 PM AKST
Nautical Twilight 7:39 AM AKST 6:13 PM AKST
Astronomical Twilight 6:53 AM AKST 7:00 PM AKST
Moon 8:54 PM AKST (11/25) 12:50 PM AKST (11/25)
Length of Visible Light 8h 54m
Length of Day
7h 19m
Waning Gibbous, 81% of the Moon is Illuminated
Nov 25
Waning Gibbous
Nov 28
Last Quarter
Dec 5
New
Dec 13
First Quarter
Dec 20
Full

Hourly Weather History & Observations

Time (AKST) Temp. Windchill Dew Point Humidity Pressure Visibility Wind Dir Wind Speed Gust Speed Precip Events Conditions
12:53 AM 37.9 °F 29.6 °F 26.1 °F 62% 29.28 in 10.0 mi WNW 13.8 mph 19.6 mph N/A   Mostly Cloudy
1:53 AM 37.9 °F 29.2 °F 26.1 °F 62% 29.29 in 10.0 mi West 15.0 mph - N/A   Overcast
2:53 AM 37.0 °F 29.8 °F 25.0 °F 62% 29.29 in 10.0 mi WNW 10.4 mph - N/A   Overcast
3:53 AM 37.0 °F 27.4 °F 26.1 °F 65% 29.31 in 9.0 mi WNW 17.3 mph 20.7 mph 0.00 in Snow Light Snow
4:53 AM 36.0 °F 26.3 °F 25.0 °F 64% 29.32 in 9.0 mi WNW 16.1 mph - 0.00 in Snow Light Snow
5:53 AM 35.1 °F 24.8 °F 25.0 °F 67% 29.32 in 9.0 mi WNW 17.3 mph 28.8 mph 0.00 in   Overcast
6:53 AM 35.1 °F 25.5 °F 25.0 °F 67% 29.35 in 10.0 mi WNW 15.0 mph 20.7 mph 0.00 in   Overcast
7:53 AM 35.1 °F 23.8 °F 24.1 °F 64% 29.37 in 10.0 mi West 20.7 mph 24.2 mph N/A   Mostly Cloudy
8:53 AM 36.0 °F 26.0 °F 24.1 °F 62% 29.39 in 10.0 mi WNW 17.3 mph 24.2 mph N/A   Mostly Cloudy
9:53 AM 36.0 °F 26.3 °F 25.0 °F 64% 29.41 in 10.0 mi West 16.1 mph 26.5 mph N/A   Mostly Cloudy
10:53 AM 36.0 °F 25.6 °F 24.1 °F 62% 29.43 in 10.0 mi West 18.4 mph 26.5 mph N/A   Scattered Clouds
11:53 AM 37.0 °F 27.7 °F 24.1 °F 59% 29.45 in 10.0 mi West 16.1 mph 25.3 mph N/A   Scattered Clouds
12:53 PM 36.0 °F 25.0 °F 19.9 °F 52% 29.45 in 10.0 mi WNW 20.7 mph 32.2 mph N/A   Partly Cloudy
1:53 PM 35.1 °F 23.8 °F 19.0 °F 52% 29.48 in 10.0 mi West 20.7 mph 38.0 mph N/A   Partly Cloudy
2:53 PM 34.0 °F 25.0 °F 18.0 °F 52% 29.50 in 10.0 mi West 12.7 mph 24.2 mph N/A   Partly Cloudy
3:53 PM 33.1 °F 22.2 °F 16.0 °F 50% 29.52 in 10.0 mi WNW 17.3 mph 31.1 mph N/A   Partly Cloudy
4:53 PM 32.0 °F 17.6 °F 15.1 °F 50% 29.51 in 10.0 mi WNW 29.9 mph 42.6 mph 0.00 in Snow Light Snow
5:53 PM 32.0 °F 18.4 °F 15.1 °F 50% 29.55 in 10.0 mi WNW 26.5 mph 41.4 mph N/A   Partly Cloudy
6:53 PM 32.0 °F 17.2 °F 15.1 °F 50% 29.56 in 9.0 mi West 32.2 mph 40.3 mph N/A   Partly Cloudy
7:53 PM 32.0 °F 19.5 °F 12.9 °F 45% 29.57 in 9.0 mi WNW 21.9 mph 42.6 mph N/A   Partly Cloudy
8:53 PM 32.0 °F 18.4 °F 15.1 °F 50% 29.59 in 9.0 mi WNW 26.5 mph 49.5 mph N/A   Partly Cloudy
9:53 PM 32.0 °F 17.9 °F 12.0 °F 44% 29.65 in 9.0 mi WNW 28.8 mph 46.0 mph N/A   Partly Cloudy
10:53 PM 33.1 °F 20.9 °F 12.9 °F 43% 29.65 in 9.0 mi WNW 21.9 mph 36.8 mph N/A   Clear
11:53 PM 33.1 °F 23.9 °F 12.9 °F 43% 29.69 in 10.0 mi WNW 12.7 mph 24.2 mph N/A   Clear